This is the latest recevied weather packets stored in our database for station/object VE2XOX. If no packets are shown the sender has not sent any weather packets the latest 10 day(s).
| Time | Temp. | Humidity | Pressure | Rain* | Wind** | Luminosity | Snow |
|---|---|---|---|---|---|---|---|
| 1777579830 | 9.44° C | 91% | 1005.1 hPa | 4.06 mm | - | - | - |
| 1777579515 | 9.44° C | 91% | 1005.1 hPa | 4.06 mm | - | - | - |
| 1777579221 | 9.44° C | 91% | 1005.1 hPa | 4.06 mm | - | - | - |
| 1777578928 | 9.44° C | 91% | 1005.2 hPa | 3.05 mm | - | - | - |
| 1777577721 | 10° C | 91% | 1005 hPa | 3.05 mm | - | - | - |
| 1777577430 | 9.44° C | 91% | 1005 hPa | 2.03 mm | - | - | - |
| 1777577115 | 9.44° C | 91% | 1005 hPa | 3.05 mm | - | - | - |
| 1777576820 | 9.44° C | 91% | 1005.1 hPa | 3.05 mm | - | - | - |
| 1777576532 | 10° C | 91% | 1005.1 hPa | 3.05 mm | - | - | - |
| 1777576217 | 10° C | 91% | 1005.2 hPa | 3.05 mm | - | - | - |
| 1777575323 | 9.44° C | 91% | 1005.3 hPa | 5.08 mm | - | - | - |
| 1777574138 | 10° C | 91% | 1005.3 hPa | 7.11 mm | - | - | - |
| 1777573823 | 10° C | 91% | 1005.3 hPa | 7.87 mm | - | - | - |
| 1777572612 | 10° C | 91% | 1005.4 hPa | 8.89 mm | - | - | - |
| 1777572029 | 10° C | 91% | 1005.3 hPa | 9.91 mm | - | - | - |
| 1777571714 | 10° C | 91% | 1005.2 hPa | 8.89 mm | - | - | - |
| 1777570812 | 9.44° C | 91% | 1005.4 hPa | 10.92 mm | - | - | - |
| 1777570519 | 9.44° C | 91% | 1005.4 hPa | 11.94 mm | - | - | - |
| 1777570230 | 9.44° C | 91% | 1005.4 hPa | 11.94 mm | - | - | - |
| 1777569915 | 9.44° C | 91% | 1005.4 hPa | 11.94 mm | - | - | - |
| 1777569018 | 9.44° C | 91% | 1005.3 hPa | 13.97 mm | - | - | - |
| 1777568433 | 9.44° C | 91% | 1005.3 hPa | 14.99 mm | - | - | - |
| 1777567537 | 9.44° C | 91% | 1005.4 hPa | 17.02 mm | - | - | - |
| 1777567221 | 9.44° C | 91% | 1005.5 hPa | 16 mm | - | - | - |
| 1777566927 | 9.44° C | 91% | 1005.5 hPa | 16 mm | - | - | - |
* Rain latest hour (hover to see other rain measurements)
** Current wind speed in m/s (hover to see current wind gust speed)